EW4164 Weather Reports


time (UTC)temp
C
wind
direction
speed
KPH
gust
KPH
rain 1hr
cm
rain 24hr
cm
rain mn
cm
humidity
%
barometer
mb
20260503200214 16 217 1.6 6.4 0.00 0.03 0.03 56 1014.5
20260503200111 16 243 0.0 4.8 0.00 0.03 0.03 56 1014.4
20260503194519 16 144 1.6 8.0 0.00 0.03 0.03 54 1014.4
20260503194226 16 149 3.2 9.7 0.00 0.03 0.03 53 1014.5
20260503193217 17 242 3.2 8.0 0.00 0.03 0.03 52 1014.4
20260503193037 17 193 1.6 8.0 0.00 0.03 0.03 51 1014.2
20260503192222 17 217 3.2 16.1 0.00 0.03 0.03 50 1014.4
20260503191509 17 254 3.2 14.5 0.00 0.03 0.03 51 1014.0
20260503190239 17 301 4.8 12.9 0.00 0.03 0.03 50 1014.5
20260503190042 17 244 6.4 9.7 0.00 0.03 0.03 50 1014.3
20260503185231 17 44 4.8 17.7 0.00 0.03 0.03 49 1014.5
20260503184510 17 211 4.8 16.1 0.00 0.03 0.03 48 1014.4
20260503183208 17 234 6.4 16.1 0.00 0.03 0.03 47 1014.5
20260503183037 17 188 4.8 16.1 0.00 0.03 0.03 47 1014.3
20260503182217 18 256 8.0 20.9 0.00 0.03 0.03 46 1014.5
20260503181601 17 221 6.4 16.1 0.00 0.03 0.03 45 1014.2
20260503181226 18 186 8.0 24.1 0.00 0.03 0.03 45 1014.4
20260503180230 18 236 9.7 24.1 0.00 0.03 0.03 43 1014.2
20260503180052 18 261 11.3 27.4 0.00 0.03 0.03 43 1014.1
20260503174555 18 178 9.7 25.7 0.00 0.03 0.03 40 1014.1
20260503174224 18 211 8.0 19.3 0.00 0.03 0.03 40 1014.2
20260503173051 18 244 4.8 17.7 0.00 0.03 0.03 39 1014.0
20260503172224 19 224 9.7 22.5 0.00 0.03 0.03 39 1014.3
20260503171540 18 196 8.0 20.9 0.00 0.03 0.03 39 1014.0
20260503170232 19 195 9.7 30.6 0.00 0.03 0.03 39 1014.1
20260503150221 23 230 3.2 9.7 0.00 0.03 0.03 39 1013.1
20260503140219 23 239 6.4 12.9 0.00 0.03 0.03 37 1013.6
20260503131208 24 200 3.2 16.1 0.00 0.03 0.03 44 1013.8
20260503130216 24 174 4.8 9.7 0.00 0.03 0.03 46 1014.0
20260503110215 21 163 4.8 9.7 0.00 0.03 0.03 53 1014.8
20260503100220 22 46 3.2 11.3 0.00 0.03 0.03 43 1015.2
20260503081547 18 254 1.6 6.4 0.00 0.03 0.03 61 1015.3
20260503081220 18 274 3.2 11.3 0.00 0.03 0.03 60 1015.8
20260503080216 18 238 3.2 14.5 0.00 0.03 0.03 63 1015.9
20260503072209 19 153 4.8 14.5 0.00 0.03 0.03 54 1015.9
20260503071525 19 170 1.6 9.7 0.00 0.03 0.03 40 1015.3
20260503071230 19 201 6.4 17.7 0.00 0.03 0.03 38 1015.5
20260503070218 19 237 9.7 16.1 0.00 0.03 0.03 38 1015.4
20260503070104 19 281 6.4 25.7 0.00 0.03 0.03 37 1015.0
20260503060244 16 206 3.2 11.3 0.00 0.03 0.03 49 1015.9
20260503060114 16 149 4.8 14.5 0.00 0.03 0.03 51 1015.5
20260503054506 15 273 1.6 6.4 0.00 0.03 0.03 65 1015.7
20260503054206 15 229 1.6 3.2 0.00 0.03 0.03 64 1016.1
20260503053221 15 241 1.6 11.3 0.00 0.03 0.03 67 1016.2
20260503053106 15 214 0.0 4.8 0.00 0.03 0.03 67 1015.8
20260503052215 15 219 3.2 11.3 0.00 0.03 0.03 62 1016.3
20260503051559 15 203 1.6 9.7 0.03 0.03 0.03 56 1015.8
20260503051218 15 227 1.6 9.7 0.03 0.03 0.03 59 1016.0
20260503050220 14 221 1.6 4.8 0.03 0.03 0.03 63 1015.7
20260503050059 14 232 1.6 6.4 0.03 0.03 0.03 63 1015.3
20260503045219 13 194 1.6 4.8 0.03 0.03 0.03 67 1015.7
20260503044511 13 162 0.0 1.6 0.03 0.03 0.03 74 1015.3
20260503044218 13 126 1.6 3.2 0.03 0.03 0.03 73 1015.5
20260503043231 13 236 1.6 3.2 0.03 0.03 0.03 72 1015.5
20260503043011 13 223 1.6 3.2 0.03 0.03 0.03 74 1015.1
20260503042208 14 224 0.0 6.4 0.00 0.00 0.00 75 1015.6
20260503041514 14 214 0.0 6.4 0.00 0.00 0.00 71 1015.3
20260503041227 15 202 1.6 4.8 0.00 0.00 0.00 68 1015.5
20260503040027 15 234 0.0 3.2 0.00 0.00 0.00 64 1015.1
20260503035209 15 346 1.6 3.2 0.00 0.00 0.00 58 1015.4
20260503034529 15 97 0.0 3.2 0.00 0.00 0.00 58 1015.0
20260503034217 15 184 0.0 3.2 0.00 0.00 0.00 58 1015.4
20260503033210 15 340 0.0 4.8 0.00 0.00 0.00 57 1014.9
20260503033004 14 317 0.0 1.6 0.00 0.00 0.00 57 1014.8
20260503032214 15 240 1.6 4.8 0.00 0.00 0.00 59 1015.2
20260503031550 14 231 0.0 3.2 0.00 0.00 0.00 60 1015.1
20260503030212 15 201 1.6 4.8 0.00 0.00 0.00 58 1015.6
20260503030051 15 206 0.0 3.2 0.00 0.00 0.00 58 1015.3
20260503025221 15 212 1.6 4.8 0.00 0.00 0.00 56 1015.6
20260503024550 15 86 1.6 4.8 0.00 0.00 0.00 54 1015.2
20260503024221 15 179 0.0 3.2 0.00 0.00 0.00 54 1015.6
20260503023220 15 219 1.6 3.2 0.00 0.00 0.00 53 1015.6
20260503023039 15 219 1.6 3.2 0.00 0.00 0.00 53 1015.3
20260503021515 16 136 0.0 3.2 0.00 0.00 0.00 49 1015.3
20260503021207 16 35 1.6 4.8 0.00 0.00 0.00 48 1015.6
20260503020057 16 62 1.6 6.4 0.00 0.00 0.00 47 1015.4
20260503014611 16 234 0.0 3.2 0.00 0.00 0.00 49 1015.3
20260503014224 16 315 1.6 4.8 0.00 0.00 0.00 49 1015.6
20260503013219 16 244 0.0 4.8 0.00 0.00 0.00 51 1015.6
20260503013057 16 195 0.0 3.2 0.00 0.00 0.00 52 1015.3
20260503012215 16 178 1.6 11.3 0.00 0.00 0.00 51 1015.6
20260503011634 16 165 0.0 11.3 0.00 0.00 0.00 48 1015.3
20260503011221 17 229 4.8 11.3 0.00 0.00 0.00 47 1015.6
20260503010219 17 250 4.8 14.5 0.00 0.00 0.00 48 1015.7
20260503010048 16 206 4.8 11.3 0.00 0.00 0.00 48 1015.4
20260503005208 17 215 4.8 11.3 0.00 0.00 0.00 49 1015.7
20260503004529 16 355 4.8 12.9 0.00 0.00 0.00 50 1015.5
20260503004222 17 207 4.8 11.3 0.00 0.00 0.00 50 1015.8
20260503003220 17 257 3.2 17.7 0.00 0.00 0.00 51 1015.8
20260503003018 17 206 1.6 14.5 0.00 0.00 0.00 51 1015.6
20260503002222 17 247 4.8 9.7 0.00 0.00 0.00 50 1015.8
20260503001507 17 257 3.2 9.7 0.00 0.00 0.00 50 1015.6
20260503001220 17 196 3.2 11.3 0.00 0.00 0.00 51 1015.9
20260503000108 17 223 1.6 9.7 0.00 0.00 0.00 51 1015.7
20260502235218 17 249 4.8 11.3 0.00 0.00 0.00 51 1016.0
20260502234538 17 271 3.2 14.5 0.00 0.00 0.00 51 1015.8
20260502234215 17 211 4.8 11.3 0.00 0.00 0.00 51 1016.1
20260502233229 17 217 4.8 12.9 0.00 0.00 0.00 52 1016.2
20260502233021 17 203 3.2 12.9 0.00 0.00 0.00 52 1016.1
20260502232245 17 198 4.8 12.9 0.00 0.00 0.00 52 1016.3
20260502231515 17 276 3.2 11.3 0.00 0.00 0.00 54 1016.2
20260502231210 17 202 4.8 11.3 0.00 0.00 0.00 54 1016.4
20260502230210 17 200 4.8 11.3 0.00 0.00 0.00 55 1016.4
20260502230025 16 162 3.2 12.9 0.00 0.00 0.00 56 1016.2
20260502225218 17 235 4.8 9.7 0.00 0.00 0.00 56 1016.4
20260502224523 16 263 3.2 9.7 0.00 0.00 0.00 56 1016.2
20260502224228 17 230 4.8 12.9 0.00 0.00 0.00 57 1016.4
20260502223219 17 265 4.8 12.9 0.00 0.00 0.00 54 1016.5
20260502223033 17 242 4.8 12.9 0.00 0.00 0.00 55 1016.2
20260502222218 17 234 4.8 11.3 0.00 0.00 0.00 55 1016.3
20260502221551 17 198 6.4 12.9 0.00 0.00 0.00 56 1016.1
20260502221231 17 274 4.8 9.7 0.00 0.00 0.00 56 1016.3
20260502220230 17 233 4.8 12.9 0.00 0.00 0.00 58 1016.3
20260502220049 17 228 4.8 12.9 0.00 0.00 0.00 58 1016.2
20260502215217 17 253 4.8 11.3 0.00 0.00 0.00 59 1016.4
20260502214603 17 230 3.2 16.1 0.00 0.00 0.00 60 1016.2
20260502214232 17 223 4.8 9.7 0.00 0.00 0.00 61 1016.4
20260502213213 17 238 4.8 9.7 0.00 0.00 0.00 62 1016.4
20260502213006 17 247 4.8 12.9 0.00 0.00 0.00 62 1016.1
20260502212215 17 223 4.8 9.7 0.00 0.00 0.00 62 1016.3
20260502211534 17 233 3.2 9.7 0.00 0.00 0.00 63 1016.2
20260502211229 17 202 4.8 12.9 0.00 0.00 0.00 63 1016.4
20260502210221 17 206 4.8 12.9 0.00 0.00 0.00 62 1016.5
20260502210100 17 195 4.8 12.9 0.00 0.00 0.00 62 1016.4
20260502205214 18 216 4.8 11.3 0.00 0.00 0.00 62 1016.5
20260502204604 17 192 4.8 11.3 0.00 0.00 0.00 61 1016.4
20260502204221 18 252 3.2 6.4 0.00 0.00 0.00 61 1016.6
20260502203004 17 236 1.6 8.0 0.00 0.00 0.00 62 1016.5
20260502202221 18 299 1.6 4.8 0.00 0.00 0.00 62 1016.7
20260502201516 18 222 0.0 4.8 0.00 0.00 0.00 62 1016.4